www.pogodaiklimat.ru

Погода и климат >> Архив погоды >> Катар >> Доха


АРХИВ ПОГОДЫ в Дохе

Время (UTC), дата Ветер
(напр.,м/с)
 
Видим.   Явления Облачность Т
(С)
Тd
(С)
f
(%)
Тe
(С)
Тes
(С)
Комфортность P
(гПа)
Po
(гПа)
Тmin
(С)
Tmax
(С)
R
(мм)
R24
(мм)
S
(см)
15 20.06 СЗ 12 20 км н/о +37.7 +4.0 12 +35 +35 очень
жарко
999.4 998.1
18 20.06 СЗ 14 20 км н/о +35.6 +6.5 17 +33 +33 жарко 1000.3 999.0 +42.0
21 20.06 З 10 20 км н/о +34.7 +10.6 23 +34 +34 очень
жарко
999.6 998.3
00 21.06 З 9 20 км н/о +33.5 +15.4 34 +36 +36 очень
душно
999.3 998.0
03 21.06 СЗ 5 18 км н/о +33.2 +17.7 40 +37 +37 очень
душно
1000.9 999.6
06 21.06 СЗ 13 20 км н/о +37.8 +15.3 26 +39 +39 очень
душно
1001.7 1000.4 +32.7
09 21.06 СЗ 16 20 км н/о +42.5 +0.8 8 +39 +39 очень
жарко
1000.7 999.4
12 21.06 СЗ 20 20 км н/о +40.5 +7.5 14 +38 +38 очень
жарко
999.3 998.0
15 21.06 СЗ 15 20 км н/о +37.7 +11.0 20 +37 +37 очень
жарко
999.8 998.5
18 21.06 СЗ 10 20 км н/о +34.9 +10.3 22 +34 +34 очень
жарко
1000.6 999.3 +42.5
00 22.06 З 4 20 км н/о +32.3 +17.1 40 +36 +36 очень
душно
999.6 998.3
03 22.06 З 5 20 км н/о +33.1 +15.9 36 +36 +36 очень
душно
1001.1 999.8
06 22.06 СЗ 7 19 км н/о +35.4 +18.7 37 +40 +40 очень
душно
1001.5 1000.2 +32.1
09 22.06 С 10 20 км н/о +36.0 +21.0 42 +43 +43 опасность
перегрева
1001.3 1000.0
12 22.06 СВ 6 14 км н/о +35.0 +23.1 50 +45 +45 опасность
перегрева
1000.8 999.5
15 22.06 С 8 8000 м н/о +33.4 +24.9 61 +47 +47 опасность
перегрева
1000.8 999.5
18 22.06 СЗ 7 11 км н/о +32.3 +24.3 63 +45 +45 опасность
перегрева
1001.6 1000.3 +36.9
21 22.06 СЗ 7 9000 м н/о +31.7 +23.3 61 +42 +42 опасность
перегрева
1001.3 1000.0
00 23.06 С 5 6000 м н/о +31.0 +26.7 78 +48 +48 опасность
перегрева
1000.7 999.4
03 23.06 С 4 7000 м н/о +31.7 +26.1 72 +47 +47 опасность
перегрева
1002.1 1000.8
06 23.06 С 6 11 км н/о +36.4 +18.4 35 +41 +41 опасность
перегрева
1003.0 1001.7 +30.8
09 23.06 С 8 11 км н/о +40.8 +12.5 19 +40 +40 очень
жарко
1002.0 1000.7
12 23.06 СВ 12 11 км н/о +38.8 +17.7 29 +42 +42 опасность
перегрева
1001.1 999.8
15 23.06 С 9 9000 м н/о +34.7 +24.0 54 +46 +46 опасность
перегрева
1001.4 1000.1
18 23.06 СЗ 6 11 км н/о +33.8 +24.1 57 +46 +46 опасность
перегрева
1002.2 1000.9 +42.0
21 23.06 СЗ 3 8000 м н/о +32.8 +23.8 59 +44 +44 опасность
перегрева
1001.4 1000.1
00 24.06 С 5 10 км н/о +32.4 +21.1 51 +40 +40 очень
душно
1000.9 999.6
03 24.06 СЗ 3 8000 м н/о +33.5 +17.4 38 +37 +37 очень
душно
1002.3 1001.0
06 24.06 СЗ 9 9000 м н/о +38.4 +11.6 20 +38 +38 очень
жарко
1003.1 1001.8 +32.0
09 24.06 С 13 9000 м н/о +42.7 +5.1 10 +40 +40 очень
жарко
1001.6 1000.3
12 24.06 З 8 15 км н/о +45.0 -8.4 3 +40 +40 очень
жарко
1000.3 999.0
15 24.06 З 7 16 км н/о +43.4 -7.7 4 +39 +39 очень
жарко
1000.6 999.3
18 24.06 СЗ 6 13 км н/о +37.2 +16.8 30 +40 +40 очень
душно
1001.7 1000.4 +45.2
21 24.06 З 6 12 км н/о +38.3 +2.8 11 +35 +35 очень
жарко
1000.8 999.5
00 25.06 З 2 14 км н/о +37.5 +6.7 15 +35 +35 очень
жарко
1000.4 999.1
03 25.06 СЗ 6 13 км н/о +36.9 +10.1 20 +36 +36 очень
жарко
1001.6 1000.3
06 25.06 З 10 13 км н/о +41.7 +6.0 12 +39 +39 очень
жарко
1002.1 1000.8 +35.8
09 25.06 СЗ 16 17 км н/о +45.0 -1.3 6 +41 +41 опасность
перегрева
1001.4 1000.1
12 25.06 С 13 17 км н/о +39.2 +20.1 33 +45 +45 опасность
перегрева
1000.3 999.0
15 25.06 СЗ 15 20 км н/о +37.1 +20.3 38 +43 +43 опасность
перегрева
1000.4 999.1
18 25.06 СЗ 7 14 км н/о +34.1 +24.9 59 +48 +48 опасность
перегрева
1001.3 1000.0 +45.9
21 25.06 СЗ 5 13 км н/о +33.4 +24.0 58 +45 +45 опасность
перегрева
1000.4 999.1
00 26.06 СЗ 3 14 км н/о +33.1 +22.4 53 +42 +42 опасность
перегрева
1000.6 999.3
03 26.06 СЗ 1 10 км н/о +33.0 +21.0 49 +40 +40 очень
душно
1002.1 1000.8
06 26.06 С 4 18 км н/о +38.2 +19.7 34 +43 +43 опасность
перегрева
1002.7 1001.4 +32.2
09 26.06 С 10 20 км н/о +41.9 +13.7 19 +42 +42 опасность
перегрева
1001.7 1000.4
12 26.06 СВ 8 17 км н/о +37.4 +23.0 44 +47 +47 опасность
перегрева
1000.6 999.3
15 26.06 С 6 10 км н/о +35.0 +24.3 54 +47 +47 опасность
перегрева
1000.0 998.7
18 26.06 СЗ 5 8000 м н/о +33.4 +25.9 65 +49 +49 опасность
перегрева
1000.8 999.5 +41.9
21 26.06 ЮВ 1 15 км н/о +36.4 +16.1 30 +38 +38 очень
душно
999.0 997.7
00 27.06 В 2 6000 м н/о +31.7 +25.7 71 +47 +47 опасность
перегрева
999.3 998.0
03 27.06 Ю 4 8000 м н/о +33.2 +21.9 52 +42 +42 опасность
перегрева
1000.4 999.1
06 27.06 С 1 14 км н/о +42.3 -1.9 6 +38 +38 очень
жарко
1000.1 998.8 +31.5
09 27.06 В 7 15 км н/о +41.0 +7.9 14 +39 +39 очень
жарко
998.9 997.6

 

Местоположение метеостанции Доха (Катар): широта 25.25 долгота 51.57 высота над уровнем моря 10 м.

В архиве по умолчанию представлена погода в Дохе за последнюю неделю. Архивные данные за месяц целиком и за предыдущие месяцы, начиная с января 2011 года, Вы можете получить, выбрав интересующий диапазон дат из раскрывающегося списка и нажав кнопку "Ввод!".


*Определитесь, кто Вы:
робот инопланетянин человек

Внимание! Время в таблицах - всемирное. Для получения местного времени необходимо прибавить поправку, которая равна 4 ч.

Смотрите также архив погоды в соседних городах и на ближайших метеорологических станциях:

Погода в Аэропорту Хамад (Катар) (5 км)
Погода в Доха порту (Катар) (26 км)
Погода в Духане (Катар) (84 км)
Погода в Абу Самба (Катар) (94 км)
Погода в Бахрейне (Бахрейн) (146 км)
Погода в Дахране (Саудовская Аравия) (180 км)
Погода в Эль-Хуфуфе (Саудовская Аравия) (210 км)
Погода в Эд-Даммаме (Саудовская Аравия) (220 км)
Погода на Острове Киш (Иран) (278 км)
Погода в Бендер-Дейере (Иран) (289 км)

Пояснения к столбцам:

Ветер - указаны скорость ветра в м/с - средняя за 10 мин, порывы в срок и между сроками (в фигурных скобках) и направление, откуда дует ветер: С - северный, СВ - северо-восточный, В - восточный, ЮВ - юго-восточный, Ю - южный, ЮЗ - юго-западный, З - западный, СЗ - северо-западный.
Видимость - горизонтальная дальность видимости в метрах или километрах. При видимости от 1 до 10 км при отсутствии осадков обычно наблюдается дымка, при ухудшении видимости до 1 км и менее - туман. В сухую погоду видимость может ухудшаться дымом, пылью или мглою.
Явления - указаны атмосферные явления, наблюдавшиеся в срок или в последний час перед сроком; фигурными скобками обозначены явления, наблюдавшиеся между сроками (за 1-3 часа до срока); квадратными скобками обозначены град или гололедные отложения с указанием их диаметра в мм.
Облачность - указаны через наклонную черту общая и нижняя облачность в баллах и высота нижней границы облаков в метрах; квадратными скобками обозначены формы облаков: Ci - перистые, Cs - перисто-слоистые, Cc - перисто-кучевые, Ac - высококучевые, As - высокослоистые, Sc - слоисто-кучевые, Ns - слоисто-дождевые, Cu - кучевые, Cb - кучево-дождевые. Подробнее классификацию облаков см. в Атласе облаков (PDF).
T - Температура воздуха - температура, измеренная на высоте 2 м над землей.
Td - Температура точки росы - температура, при понижении до которой содержащийся в воздухе водяной пар достигнет насыщения.
f - Относительная влажность воздуха - влажноcть воздуха, измеренная на высоте 2 м над землей.
Te - Эффективная температура - температура, которую ощущает одетый по сезону человек в тени. Характеристика душности погоды. При расчете учитывается влияние влажности воздуха и скорости ветра на теплоощущения человека.
Tes - Эффективная температура на солнце - температура, которую ощущает человек, с поправкой на солнечный нагрев. Характеристика знойности погоды. Зависит от высоты солнца над горизонтом, облачности и скорости ветра. Ночью, в пасмурную погоду, а также при ветре 12 м/с и более поправка равна нулю.
P - Атмосферное давление - приведенное к уровню моря атмосферное давление.
Po - Атмосферное давление - измеренное на уровне метеостанции атмосферное давление.
Tmin - Минимальная температура - минимум температуры воздуха на высоте 2 м над землей.
Tmax - Максимальная температура - максимум температуры воздуха на высоте 2 м над землей.
R - Количество осадков - Количество выпавших осадков за период времени, мм. При наведении курсора мыши на число - период времени, за который выпало указанное количество осадков.
R24 - Количество осадков - Количество выпавших осадков за 24 часа, мм.
S - Снежный покров - Высота снежного покрова, см. При наведении курсора мыши на число - состояние снежного покрова и степень покрытия местности в баллах.